Flag for Australia

Past Weather in Bendigo, Victoria, Australia — Yesterday and Last 2 Weeks

Now
39 °F

Passing clouds.


Feels Like: 32 °F
Forecast: 49 / 34 °F
Wind: 10 mph from Southwest

Location: Bendigo Airport Aws

Current Time: Aug 4, 2020 at 7:04:26 am

Latest Report: Aug 4, 2020 at 6:00 am


Visibility: N/A

Pressure: 29.93 "Hg

Humidity: 79%

Dew Point: 33 °F

Location of BendigoLocation

Past Weather in Bendigo — Graph

°F

Bendigo Temperature Yesterday

Maximum temperature yesterday: 57 °F (at 2:00 pm)
Minimum temperature yesterday: 36 °F (at 7:00 am)
Average temperature yesterday: 45 °F

High & Low Weather Summary for the Past Weeks

 TemperatureHumidityPressure
High64 °F (Jul 26, 4:00 pm)100% (Aug 2, 7:00 am)30.45 "Hg (Aug 2, 7:00 am)
Low29 °F (Jul 24, 5:00 am)41% (Jul 25, 3:00 pm)29.90 "Hg (Aug 4, 3:00 am)
Average46 °F79%30.22 "Hg
* Reported Jul 20 5:00 am — Aug 4 5:00 am, Bendigo. Weather by CustomWeather, © 2020

Note: Actual official high and low records may vary slightly from our data, if they occured in-between our weather recording intervals... More about our weather records

Bendigo Weather History for the Previous 24 Hours

Scroll right to see more
 ConditionsComfort  
Time TempWeatherWind HumidityBarometerVisibility
5:00 am
Tue, Aug 4
40 °FChilly.10 mph80%29.92 "HgN/A
4:00 am40 °FChilly.7 mph81%29.90 "HgN/A
3:00 am40 °FQuite cool.7 mph78%29.90 "HgN/A
2:00 am44 °FQuite cool.10 mph75%29.91 "HgN/A
1:00 am45 °FQuite cool.8 mph91%29.92 "HgN/A
12:00 am41 °FOvercast.No wind92%29.92 "HgN/A
11:00 pm
Mon, Aug 3
40 °FQuite cool.5 mph86%29.93 "HgN/A
10:00 pm42 °FQuite cool.5 mph94%29.94 "HgN/A
9:00 pm39 °FPassing clouds.No wind91%29.93 "HgN/A
8:00 pm41 °FQuite cool.No wind87%29.93 "HgN/A
7:00 pm46 °FCool.5 mph75%29.93 "HgN/A
6:00 pm51 °FPassing clouds.6 mph66%29.93 "HgN/A
5:00 pm54 °FCool.7 mph68%29.93 "HgN/A
4:00 pm55 °FCool.8 mph63%29.93 "HgN/A
3:00 pm55 °FPassing clouds.8 mph60%29.95 "HgN/A
2:00 pm57 °FCool.8 mph60%29.96 "HgN/A
1:00 pm56 °FCool.5 mph62%29.98 "HgN/A
12:00 pm53 °FPartly sunny.2 mph68%30.03 "HgN/A
11:00 am50 °FCool.3 mph79%30.05 "HgN/A
10:00 am45 °FQuite cool.5 mph97%30.07 "HgN/A
9:00 am42 °FOvercast.7 mph99%30.07 "HgN/A
8:00 am39 °FChilly.5 mph98%30.08 "HgN/A
7:00 am36 °FChilly.3 mph97%30.07 "HgN/A
Weather by CustomWeather, © 2020

See weather overview